• In Hungary
  • List of Countries
  • For 7 days
  • Water Temperature
  • Satellite Maps
  • Weather Map
  • News
  • Weather Widgets
  • user-avatar
    Login

    Hourly Weather Chisti

    Today, 15 October, Monday

    Time Temperature Precipitation Wind Pressure Humidity
    00:00 +10°C° 0 mm 3 mps 753 mmHg 93%
    01:00 +10°C° 0 mm 2 mps 753 mmHg 93%
    02:00 +9°C° 0 mm 2 mps 753 mmHg 94%
    03:00 +8°C° 0 mm 2 mps 753 mmHg 94%
    04:00 +8°C° 0 mm 2 mps 753 mmHg 95%
    05:00 +8°C° 0 mm 2 mps 753 mmHg 95%
    06:00 +9°C° 0 mm 2 mps 753 mmHg 92%
    07:00 +9°C° 0 mm 2 mps 753 mmHg 90%
    08:00 +10°C° 0 mm 3 mps 753 mmHg 86%
    09:00 +11°C° 0 mm 3 mps 753 mmHg 80%
    10:00 +14°C° 0 mm 2 mps 753 mmHg 75%
    11:00 +15°C° 0 mm 2 mps 753 mmHg 70%
    12:00 +16°C° 0 mm 3 mps 753 mmHg 68%
    13:00 +16°C° 0 mm 3 mps 753 mmHg 66%
    14:00 +17°C° 0 mm 3 mps 753 mmHg 64%
    15:00 +14°C° 0 mm 3 mps 753 mmHg 69%
    16:00 +13°C° 0 mm 3 mps 752 mmHg 75%
    17:00 +12°C° 0 mm 3 mps 752 mmHg 80%
    18:00 +11°C° 0 mm 3 mps 752 mmHg 81%
    19:00 +10°C° 0 mm 3 mps 752 mmHg 82%
    20:00 +10°C° 0 mm 3 mps 752 mmHg 83%
    21:00 +9°C° 0 mm 3 mps 752 mmHg 84%
    22:00 +9°C° 0 mm 3 mps 752 mmHg 84%
    23:00 +8°C° 0 mm 2 mps 752 mmHg 85%

    Tomorrow, 16 October, Tuesday

    Time Temperature Precipitation Wind Pressure Humidity
    00:00 +8°C° 0 mm 2 mps 752 mmHg 85%
    01:00 +7°C° 0 mm 2 mps 752 mmHg 85%
    02:00 +7°C° 0 mm 2 mps 752 mmHg 85%
    03:00 +7°C° 0 mm 2 mps 751 mmHg 85%
    04:00 +6°C° 0 mm 2 mps 751 mmHg 85%
    05:00 +6°C° 0 mm 2 mps 751 mmHg 85%
    06:00 +7°C° 0 mm 3 mps 751 mmHg 82%
    07:00 +7°C° 0 mm 3 mps 751 mmHg 79%
    08:00 +8°C° 0 mm 3 mps 751 mmHg 76%
    09:00 +9°C° 0 mm 3 mps 751 mmHg 71%
    10:00 +10°C° 0 mm 3 mps 750 mmHg 67%
    11:00 +12°C° 0 mm 3 mps 750 mmHg 63%
    12:00 +12°C° 0 mm 3 mps 750 mmHg 62%
    13:00 +13°C° 0 mm 4 mps 750 mmHg 60%
    14:00 +13°C° 0 mm 4 mps 750 mmHg 59%
    15:00 +12°C° 0 mm 4 mps 750 mmHg 63%
    16:00 +11°C° 0 mm 3 mps 749 mmHg 66%
    17:00 +11°C° 0 mm 3 mps 749 mmHg 70%
    18:00 +10°C° 0 mm 3 mps 749 mmHg 73%
    19:00 +9°C° 0 mm 3 mps 750 mmHg 75%
    20:00 +9°C° 0 mm 3 mps 750 mmHg 78%
    21:00 +8°C° 0 mm 3 mps 750 mmHg 81%
    22:00 +8°C° 0 mm 2 mps 750 mmHg 85%
    23:00 +8°C° 0 mm 2 mps 750 mmHg 88%

    Day after tomorrow, 17 October, Wednesday

    Time Temperature Precipitation Wind Pressure Humidity
    00:00 +7°C° 0 mm 2 mps 751 mmHg 90%
    01:00 +7°C° 0 mm 2 mps 751 mmHg 92%
    02:00 +7°C° 0 mm 2 mps 751 mmHg 94%
    03:00 +7°C° 0 mm 2 mps 751 mmHg 95%
    04:00 +8°C° 0 mm 1 mps 752 mmHg 95%
    05:00 +8°C° 0 mm 1 mps 752 mmHg 96%
    06:00 +8°C° 0 mm 1 mps 752 mmHg 94%
    07:00 +8°C° 0 mm 1 mps 753 mmHg 93%
    08:00 +9°C° 0 mm 1 mps 753 mmHg 92%
    09:00 +10°C° 0 mm 1 mps 753 mmHg 86%
    10:00 +11°C° 0 mm 1 mps 753 mmHg 81%
    11:00 +12°C° 0 mm 1 mps 754 mmHg 75%
    12:00 +12°C° 0 mm 1 mps 754 mmHg 74%
    13:00 +13°C° 0 mm 1 mps 754 mmHg 72%
    14:00 +13°C° 0 mm 1 mps 753 mmHg 71%
    15:00 +12°C° 0 mm 1 mps 753 mmHg 77%
    16:00 +11°C° 0 mm 1 mps 753 mmHg 82%
    17:00 +10°C° 0 mm 1 mps 753 mmHg 88%
    18:00 +10°C° 0 mm 1 mps 753 mmHg 90%
    19:00 +9°C° 0 mm 1 mps 753 mmHg 92%
    20:00 +9°C° 0 mm 1 mps 753 mmHg 94%
    21:00 +9°C° 0 mm 1 mps 753 mmHg 94%
    22:00 +9°C° 0 mm 1 mps 753 mmHg 95%
    23:00 +8°C° 0 mm 1 mps 753 mmHg 95%

    18 October, Thursday

    Time Temperature Precipitation Wind Pressure Humidity
    00:00 +7°C° 0 mm 2 mps 753 mmHg 95%
    01:00 +7°C° 0 mm 2 mps 752 mmHg 95%
    02:00 +7°C° 0 mm 2 mps 752 mmHg 95%
    03:00 +6°C° 0 mm 2 mps 752 mmHg 95%
    04:00 +6°C° 0 mm 2 mps 752 mmHg 94%
    05:00 +6°C° 0 mm 2 mps 751 mmHg 94%
    06:00 +6°C° 0 mm 2 mps 751 mmHg 92%
    07:00 +7°C° 0 mm 2 mps 751 mmHg 90%
    08:00 +7°C° 0 mm 2 mps 751 mmHg 88%
    09:00 +9°C° 0 mm 2 mps 751 mmHg 84%
    10:00 +10°C° 0 mm 2 mps 751 mmHg 79%
    11:00 +12°C° 0 mm 2 mps 750 mmHg 74%
    12:00 +13°C° 0 mm 2 mps 750 mmHg 73%
    13:00 +13°C° 0 mm 2 mps 750 mmHg 71%
    14:00 +14°C° 0 mm 2 mps 750 mmHg 70%
    15:00 +12°C° 0 mm 2 mps 749 mmHg 76%
    16:00 +10°C° 0 mm 2 mps 749 mmHg 82%
    17:00 +9°C° 0 mm 2 mps 749 mmHg 89%
    18:00 +8°C° 0 mm 2 mps 749 mmHg 89%
    19:00 +8°C° 0 mm 2 mps 749 mmHg 90%
    20:00 +8°C° 0 mm 2 mps 748 mmHg 91%
    21:00 +7°C° 0 mm 2 mps 748 mmHg 92%
    22:00 +7°C° 0 mm 2 mps 748 mmHg 92%
    23:00 +7°C° 0 mm 2 mps 748 mmHg 93%

    19 October, Friday

    Time Temperature Precipitation Wind Pressure Humidity
    00:00 +7°C° 0 mm 2 mps 748 mmHg 93%
    01:00 +6°C° 0 mm 2 mps 748 mmHg 94%
    02:00 +6°C° 0 mm 2 mps 748 mmHg 94%
    03:00 +6°C° 0 mm 2 mps 748 mmHg 94%
    04:00 +5°C° 0 mm 3 mps 747 mmHg 94%
    05:00 +5°C° 0 mm 3 mps 747 mmHg 95%
    06:00 +7°C° 0 mm 3 mps 747 mmHg 93%
    07:00 +7°C° 0 mm 3 mps 747 mmHg 92%
    08:00 +7°C° 0 mm 3 mps 747 mmHg 91%
    09:00 +8°C° 0 mm 3 mps 747 mmHg 88%
    10:00 +9°C° 0 mm 3 mps 747 mmHg 86%
    11:00 +10°C° 0 mm 3 mps 748 mmHg 84%
    12:00 +10°C° 0 mm 3 mps 748 mmHg 83%
    13:00 +10°C° 0 mm 3 mps 748 mmHg 82%
    14:00 +10°C° 0 mm 3 mps 748 mmHg 81%
    15:00 +10°C° 0 mm 2 mps 748 mmHg 83%
    16:00 +9°C° 0 mm 2 mps 748 mmHg 85%
    17:00 +8°C° 0 mm 2 mps 748 mmHg 87%
    18:00 +7°C° 0 mm 2 mps 748 mmHg 88%
    19:00 +8°C° 0 mm 1 mps 748 mmHg 89%
    20:00 +7°C° 0 mm 1 mps 748 mmHg 90%
    21:00 +6°C° 0 mm 1 mps 748 mmHg 91%
    22:00 +6°C° 0 mm 1 mps 748 mmHg 92%
    23:00 +5°C° 0 mm 1 mps 748 mmHg 93%

    20 October, Saturday

    Time Temperature Precipitation Wind Pressure Humidity
    00:00 +5°C° 0 mm 1 mps 748 mmHg 93%
    01:00 +5°C° 0 mm 1 mps 748 mmHg 93%
    02:00 +4°C° 0 mm 1 mps 748 mmHg 94%
    03:00 +4°C° 0 mm 1 mps 748 mmHg 94%
    04:00 +4°C° 0 mm 1 mps 747 mmHg 94%
    05:00 +4°C° 0 mm 1 mps 747 mmHg 94%
    06:00 +4°C° 0 mm 1 mps 747 mmHg 91%
    07:00 +4°C° 0 mm 1 mps 747 mmHg 89%
    08:00 +4°C° 0 mm 1 mps 748 mmHg 86%
    09:00 +6°C° 0 mm 1 mps 748 mmHg 80%
    10:00 +7°C° 0 mm 1 mps 748 mmHg 74%
    11:00 +8°C° 0 mm 1 mps 748 mmHg 68%
    12:00 +8°C° 0 mm 1 mps 747 mmHg 67%
    13:00 +9°C° 0 mm 1 mps 747 mmHg 66%
    14:00 +9°C° 0 mm 1 mps 747 mmHg 65%
    15:00 +8°C° 0 mm 1 mps 747 mmHg 71%
    16:00 +7°C° 0 mm 1 mps 747 mmHg 77%
    17:00 +6°C° 0 mm 1 mps 747 mmHg 83%
    18:00 +5°C° 0 mm 1 mps 747 mmHg 86%
    19:00 +5°C° 0 mm 1 mps 747 mmHg 88%
    20:00 +5°C° 0 mm 1 mps 747 mmHg 90%
    21:00 +4°C° 0 mm 1 mps 747 mmHg 91%
    22:00 +4°C° 0 mm 1 mps 747 mmHg 93%
    23:00 +4°C° 0 mm 1 mps 746 mmHg 94%
    Show more